EHI
0 0 0 0 0 0 0 0 0 0 0 0 0 0 0 0 0 0 0 0 0 0 0 0 0 0 0 0 0 0 0 0 0 0 0 0 0 0 0 0 0 0 0
0 0 0 0 0 0 0 0 0 0 0 0 0 0 0 0 0 0 0 0 0 0 0 0 0 0 0 0 0 0 0 0 0 0 0 0 0 0 0 0 0 0 0
0 0 0 0 0 0 0 0 0 0 0 0 0 0 0 0 0 0 0 0 0 0 0 0 0 0 0 0 0 0 0 0 0 0 0 0 0 0 0 0 0 0 0
0 0 0 0 0 0 0 0 0 0 0 0 0 0 0 0 0 0 0 0 0 0 0 0 0 0 0 0 0 0 0 0 0 0 0 0 0 0 0 0 0 0 0
0 0 0 0 0 0 0 0 0 0 0 0 0 0 0 0 0 0 0 0 0 0 0 0 0 0 0 0 0 0 0 0 0 0 0 0 0 0 0 0 0 0 0
0 0 0 0 0 0 0 0 0 0 0 0 0 0 0 0 0 0 0 0 0 0 0 0 0 0 0 0 0 0 0 0 0 0 0 0 0 0 0 0 0 0 0
0 0 0 0 0 0 0 0 0 0 0 0 0 0 0 0 0 0 0 0 0 0 0 0 0 0 0 0 0 0 0 0 0 0 0 0 0 0 0 0 0 0 0
0 0 0 0 0 0 0 0 0 0 0 0 0 0 0 0 0 0 0 0 0 0 0 0 0 0 0 0 0 0 0 0 0 0 0 0 0 0 0 0 0 0 0
0 0 0 0 0 0 0 0 0 0 0 0 0 0 0 0 0 0 0 0 0 0 0 0 0 0 0 0 0 0 0 0 0 0 0 0 0 0 0 0 0 0 0
0 0 0 0 0 0 0 0 0 0 0 0 0 0 0 0 0 0 0 0 0 0 0 0 0 0 0 0 0 0 0 0 0 0 0 0 0 0 0 0 0 0 0
0 0 0 0 0 0 0 0 0 0 0 0 0 0 0 0 0 0 0 0 0 0 0 0 0 0 0 0 0 0 0 0 0 0 0 0 0 0 0 0 0 0 0
0 0 0 0 0 0 0 0 0 0 0 0 0 0 0 0 0 0 0 0 0 0 0 0 0 0 0 0 0 0 0 0 0 0 0 0 0 0 0 0 0 0 0
0 0 0 0 0 0 0 0 0 0 0 0 0 0 0 0 0 0 0 0 0 0 0 0 0 0 0 0 0 0 0 0 0 0 0 0 0 0 0 0 0 0 0
0 0 0 0 0 0 0 0 0 0 0 0 0 0 0 0 0 0 0 0 0 0 0 0 0 0 0 0 0 0 0 0 0 0 0 0 0 0 0 0 0 0 0
0 0 0 0 0 0 0 0 0 0 0 0 0 0 0 0 0 0 0 0 0 0 0 0 0 0 0 0 0 0 0 0 0 0 0 0 0 0 0 0 0 0 0
0 0 0 0 0 0 0 0 0 0 0 0 0 0 0 0 0 0 0 0 0 0 0 0 0 0 0 0 0 0 0 0 0 0 0 0 0 0 0 0 0 0 0
0 0 0 0 0 0 0 0 0 0 0 0 0 0 0 0 0 0 0 0 0 0 0 0 0 0 0 0 0 0 0 0 0 0 0 0 0 0 0 0 0 0 0
0 0 0 0 0 0 0 0 0 0 0 0 0 0 0 0 0 0 0 0 0 0 0 0 0 0 0 0 0 0 0 0 0 0 0 0 0 0 0 0 0 0 0
0 0 0 0 0 0 0 0 0 0 0 0 0 0 0 0 0 0 0 0 0 0 0 0 0 0 0 0 0 0 0 0 0 0 0 0 0 0 0 0 0 0 0
0 0 0 0 0 0 0 0 0 0 0 0 0 0 0 0 0 0 0 0 0 0 0 0 0 0 0 0 0 0 0 0 0 0 0 0 0 0 0 0 0 0 0
0 0 0 0 0 0 0 0 0 0 0 0 0 0 0 0 0 0 0 0 0 0 0 0 0 0 0 0 0 0 0 0 0 0 0 0 0 0 0 0 0 0 0
0 0 0 0 0 0 0 0 0 0 0 0 0 0 0 0 0 0 0 0 0 0 0 0 0 0 0 0 0 0 0 0 0 0 0 0 0 0 0 0 0 0 0
0 0 0 0 0 0 0 0 0 0 0 0 0 0 0 0 0 0 0 0 0 0 0 0 0 0 0 0 0 0 0 0 0 0 0 0 0 0 0 0 0 0 0
0 0 0 0 0 0 0 0 0 0 0 0 0 0 0 0 0 0 0 0 0 0 0 0 0 0 0 0 0 0 0 0 0 0 0 0 0 0 0 0 0 0 0
0 0 0 0 0 0 0 0 0 0 0 0 0 0 0 0 0 0 0 0 0 0 0 0 0 0 0 0 0 0 0 0 0 0 0 0 0 0 0 0 0 0 0
0 0 0 0 0 0 0 0 0 0 0 0 0 0 0 0 0 0 0 0 0 0 0 0 0 0 0 0 0 0 0 0 0 0 0 0 0 0 0 0 0 0 0
Wind_Speed
0 1 2 2 2 3 3 3 4 3 3 4 4 4 4 5 5 5 5 5 6 6 6 6 6 6 5 4 4 5 5 6 8 7 5 5 7 7 5 5 6 6 5
1 2 2 2 2 3 3 3 3 3 3 4 4 5 5 5 5 6 6 6 7 7 7 7 7 6 7 6 5 6 6 7 7 9 6 6 7 7 7 7 6 5 5
1 2 2 2 2 3 3 3 3 3 4 4 5 5 5 5 5 6 7 7 7 8 8 8 8 8 8 6 7 7 6 6 7 7 7 6 5 5 7 7 7 6 6
1 2 2 2 2 3 3 3 3 3 4 5 5 5 5 5 6 6 7 7 8 8 8 8 9 8 9 8 7 8 7 7 7 7 7 6 6 5 6 6 6 5 5
2 2 3 3 3 3 3 3 3 4 4 5 5 5 5 5 5 6 7 7 8 9 9 9 9 10 10 9 7 7 7 7 6 7 7 6 6 5 5 5 6 6 6
3 3 3 3 3 3 3 3 4 4 4 5 5 6 6 5 7 10 9 8 9 9 9 9 9 10 12 14 14 13 11 9 8 7 7 8 8 7 6 5 6 6 5
3 3 3 3 3 3 3 4 4 5 5 5 6 6 7 7 9 11 11 9 9 9 10 9 8 8 10 10 12 14 14 15 14 10 10 9 8 7 7 7 7 7 7
4 4 3 3 4 4 4 5 5 5 5 6 6 7 7 8 10 12 12 10 10 10 10 10 10 10 9 10 9 10 10 11 11 10 10 9 8 7 7 7 8 8 8
4 4 4 4 4 4 5 6 5 5 6 6 6 7 8 9 10 12 12 8 8 10 10 10 11 11 12 13 11 10 10 9 10 13 13 12 12 12 9 6 6 6 6
4 4 4 4 5 6 6 6 5 5 6 6 7 8 9 10 11 12 12 7 8 8 8 9 12 13 13 13 11 10 11 10 8 8 10 11 10 10 12 9 6 6 5
4 4 5 5 5 6 6 6 6 6 6 7 8 8 9 10 11 12 12 8 8 8 8 7 7 11 14 14 13 10 11 10 8 8 7 7 6 6 6 6 6 6 6
4 5 5 6 5 5 6 6 6 6 7 8 8 9 7 8 9 10 12 12 12 9 9 7 7 11 13 14 12 11 13 11 7 6 6 6 6 5 5 5 6 6 7
5 5 5 6 5 5 6 7 6 6 6 6 7 8 8 6 7 11 13 14 14 10 8 11 12 13 13 11 12 13 11 7 6 7 7 6 5 5 4 4 5 6 7
6 6 5 6 6 6 5 5 6 6 6 7 7 8 8 7 7 6 6 7 10 9 8 10 12 13 11 10 10 8 7 6 6 7 6 5 4 4 5 4 4 4 5
6 6 6 6 6 6 6 6 7 8 8 8 8 8 8 9 9 12 10 8 7 7 8 7 6 6 6 6 6 6 6 6 6 6 5 5 5 5 5 4 4 4 5
6 6 5 5 5 6 6 7 9 11 13 15 15 14 11 14 17 17 17 17 16 14 10 7 7 7 7 6 6 6 5 6 6 5 5 5 5 5 5 5 5 5 6
7 6 5 5 6 6 6 7 8 8 11 14 15 16 16 17 17 17 17 16 16 14 9 8 7 7 6 6 6 6 6 5 5 5 6 5 5 5 5 5 5 5 6
7 7 7 6 6 6 6 7 7 8 8 8 9 12 14 15 16 16 15 13 9 8 7 7 7 7 6 6 6 6 6 5 5 6 6 5 5 6 6 6 6 6 6
7 6 6 6 6 6 7 7 7 8 8 9 8 8 10 12 13 13 11 7 7 7 6 6 6 6 6 6 6 6 6 6 6 6 6 6 6 6 6 6 6 8 7
6 8 8 6 6 6 6 7 7 7 8 8 8 8 7 7 7 7 6 6 6 6 6 6 6 6 6 6 6 6 6 6 6 6 6 5 5 6 6 7 6 6 6
5 6 8 7 7 7 7 7 7 8 8 8 8 9 11 8 8 8 7 6 6 6 6 6 6 6 6 5 5 6 7 6 6 6 5 5 5 5 5 5 5 6 5
5 6 6 6 7 7 7 7 7 8 9 10 9 9 12 8 7 7 7 6 6 6 6 6 6 5 5 5 5 6 6 6 6 5 5 5 5 5 5 5 5 5 5
6 6 7 7 7 9 8 7 7 8 8 9 8 8 7 7 7 7 7 6 6 6 5 5 5 5 5 5 5 5 6 6 5 5 5 5 5 5 5 5 6 6 6
6 7 7 7 7 7 7 8 8 8 8 8 8 8 8 7 7 7 7 6 6 5 5 5 5 6 7 5 4 5 5 5 5 5 7 6 5 5 5 5 6 6 6
6 7 7 7 7 7 8 8 8 8 8 8 8 8 7 7 7 7 6 6 6 6 6 5 4 5 6 7 6 5 6 8 7 5 5 5 6 6 6 6 5 5 5
7 8 7 7 7 8 8 8 8 8 8 7 7 7 7 7 6 6 6 5 5 5 5 4 5 5 6 5 6 7 8 9 9 9 6 5 5 5 5 5 6 5 6
Wind_Direction
232 254 226 232 236 241 244 253 257 255 254 255 259 257 253 249 244 242 244 245 246 250 246 247 251 252 251 247 245 246 248 250 263 272 272 276 276 279 284 284 288 289 289
290 280 259 243 239 245 253 263 264 265 267 262 260 257 257 255 252 249 251 249 249 252 251 249 250 247 247 249 246 246 248 248 258 270 274 274 274 280 284 286 284 280 282
286 275 269 255 249 256 267 272 273 274 275 268 258 258 261 261 258 254 254 255 253 253 253 252 252 249 248 246 246 249 250 251 252 263 272 275 275 278 283 281 280 278 281
269 268 272 275 275 278 282 277 277 275 274 273 267 264 263 260 257 256 256 256 256 256 254 253 253 250 251 251 249 249 250 251 251 256 264 268 270 273 275 281 284 281 282
261 267 277 285 286 282 281 280 280 278 276 275 273 270 266 261 257 260 260 260 261 260 257 253 251 249 250 252 252 250 248 248 250 253 258 263 263 264 267 275 281 289 282
257 266 276 277 278 278 282 284 281 279 278 274 271 272 271 264 261 263 266 265 262 261 262 260 255 248 247 247 249 250 250 251 251 252 256 258 265 267 270 273 279 284 283
260 269 272 274 279 285 289 284 281 281 281 278 274 273 272 270 268 270 268 269 265 263 262 262 259 252 247 248 248 248 248 249 250 255 258 260 267 268 271 270 269 274 276
257 263 268 273 278 284 283 280 280 278 276 278 277 276 276 273 272 274 274 270 266 263 261 260 260 258 248 247 251 251 250 248 247 249 254 260 262 264 262 266 274 276 274
258 265 270 273 276 277 277 279 281 279 278 277 277 276 276 277 273 274 275 272 266 266 262 259 257 259 254 248 249 252 254 253 248 248 255 262 263 262 261 260 260 263 270
264 270 272 268 267 270 274 279 280 278 278 280 276 274 273 275 275 275 274 268 268 270 267 261 256 256 258 253 248 250 253 255 252 249 249 252 254 255 251 247 251 254 262
268 269 270 269 268 271 274 273 274 275 275 275 276 275 273 273 276 274 271 267 267 272 271 268 262 259 260 257 252 251 254 259 257 252 251 248 247 247 245 241 240 243 247
266 267 269 271 271 270 271 274 273 272 274 277 279 281 277 274 271 273 272 269 271 271 271 270 266 264 264 262 257 252 255 256 251 247 245 244 243 242 242 241 241 243 248
264 266 270 273 272 269 269 272 274 271 270 275 278 281 283 282 277 273 275 274 273 270 270 270 270 269 268 262 253 253 253 246 242 243 245 246 243 241 238 238 240 242 248
262 269 272 272 273 272 267 265 266 266 269 273 275 279 283 283 280 277 274 277 274 270 270 270 268 264 258 255 256 251 242 240 241 246 249 248 238 228 228 230 238 239 248
262 266 268 267 269 273 270 265 265 266 267 274 276 277 280 281 280 281 284 280 277 272 277 269 259 255 252 248 246 244 239 237 239 241 243 242 237 232 232 229 235 239 243
259 263 264 266 269 271 276 279 260 257 271 270 270 272 274 273 283 284 283 281 280 275 272 261 257 252 250 249 247 245 240 237 237 236 236 236 237 235 233 228 229 235 243
255 262 264 264 266 268 271 276 286 281 269 269 270 272 272 279 283 285 284 284 280 275 264 257 256 254 251 247 243 244 245 239 234 234 235 234 235 235 232 231 230 235 241
257 258 257 261 264 266 268 271 275 282 289 288 279 276 280 282 284 285 285 285 274 263 253 253 254 254 252 250 246 243 242 238 233 232 232 231 230 231 233 231 230 233 240
258 258 258 263 264 267 269 269 270 273 276 283 288 287 284 285 285 281 279 271 268 264 258 254 253 254 252 249 247 242 239 238 236 232 230 228 226 228 232 232 233 234 237
256 253 256 264 266 266 266 267 269 271 274 277 280 285 291 287 281 279 271 265 264 264 262 259 257 253 251 248 245 241 238 236 233 232 231 227 225 226 230 231 232 233 234
262 262 258 262 263 265 266 267 269 271 273 276 277 279 281 280 277 276 272 266 264 265 264 260 257 253 249 245 244 242 238 236 233 230 228 226 223 224 226 228 229 232 235
260 263 262 264 266 266 267 268 270 271 273 275 280 282 282 276 272 271 271 269 267 266 264 260 258 253 248 244 243 242 239 236 231 225 223 223 222 223 223 224 225 228 230
257 261 264 265 266 270 271 270 270 271 273 275 279 280 279 274 272 270 270 271 271 269 264 257 257 255 250 243 240 239 240 237 229 221 219 220 221 223 223 224 225 228 232
257 260 264 267 268 268 270 272 272 272 273 275 276 276 275 275 274 272 271 271 270 269 264 258 254 253 251 249 245 240 237 232 223 219 218 219 221 223 223 224 228 231 236
259 262 264 266 267 268 270 271 272 272 273 274 274 274 274 274 274 273 271 269 268 266 264 261 257 252 249 248 247 242 235 229 226 219 213 217 220 223 226 229 231 234 239
264 265 266 266 266 266 267 269 271 273 273 274 272 271 272 272 272 271 270 267 266 265 262 260 256 254 253 252 246 239 236 234 230 226 221 217 219 223 224 229 232 236 239